Time,TemperatureF,DewpointF,PressureIn,WindDirection,WindDirectionDegrees,WindSpeedMPH,WindSpeedGustMPH,Humidity,HourlyPrecipIn,Conditions,Clouds,dailyrainin,SoftwareType,DateUTC
2013-02-28 00:00:00,44.1,33.5,29.81,WNW,300,1.0,1.0,66,0.00,,SKC,0.00,VWS V14.01,2013-02-28 05:00:00,
2013-02-28 00:01:00,44.1,33.5,29.81,West,280,0.0,1.0,66,0.00,,SKC,0.00,VWS V14.01,2013-02-28 05:01:00,
2013-02-28 00:05:00,44.1,33.5,29.82,WSW,258,1.0,3.0,66,0.00,,SKC,0.00,VWS V14.01,2013-02-28 05:05:00,
2013-02-28 00:07:00,44.1,33.5,29.82,West,280,2.0,3.0,66,0.00,,SKC,0.00,VWS V14.01,2013-02-28 05:07:00,
2013-02-28 00:12:00,44.2,33.6,29.82,WNW,290,0.0,4.0,66,0.00,,SKC,0.00,VWS V14.01,2013-02-28 05:12:00,
2013-02-28 00:18:00,44.3,33.7,29.81,West,281,0.0,4.0,66,0.00,,SKC,0.00,VWS V14.01,2013-02-28 05:18:00,
2013-02-28 00:23:00,44.1,33.5,29.81,WSW,256,0.0,4.0,66,0.00,,SKC,0.00,VWS V14.01,2013-02-28 05:23:00,
2013-02-28 00:29:00,43.9,33.7,29.81,WNW,290,1.0,4.0,67,0.00,,SKC,0.00,VWS V14.01,2013-02-28 05:29:00,
2013-02-28 00:30:00,43.9,33.7,29.81,WNW,290,0.0,4.0,67,0.00,,SKC,0.00,VWS V14.01,2013-02-28 05:30:00,
2013-02-28 00:34:00,43.7,33.5,29.82,WSW,252,0.0,1.0,67,0.00,,SKC,0.00,VWS V14.01,2013-02-28 05:34:00,
2013-02-28 00:39:00,43.6,33.4,29.81,WNW,302,0.0,2.0,67,0.00,,SKC,0.00,VWS V14.01,2013-02-28 05:39:00,
2013-02-28 00:45:00,43.5,33.7,29.81,WNW,295,1.0,2.0,68,0.00,,SKC,0.00,VWS V14.01,2013-02-28 05:45:00,
2013-02-28 00:50:00,43.3,33.5,29.81,WNW,289,0.0,4.0,68,0.00,,SKC,0.00,VWS V14.01,2013-02-28 05:50:00,
2013-02-28 00:56:00,43.3,33.5,29.82,WNW,283,0.0,4.0,68,0.00,,SKC,0.00,VWS V14.01,2013-02-28 05:56:00,
2013-02-28 01:00:00,43.1,33.3,29.82,WNW,298,1.0,4.0,68,0.00,,SKC,0.00,VWS V14.01,2013-02-28 06:00:00,
2013-02-28 01:01:00,43.1,33.3,29.82,WNW,288,0.0,2.0,68,0.00,,SKC,0.00,VWS V14.01,2013-02-28 06:01:00,
2013-02-28 01:07:00,43.0,33.2,29.82,West,277,0.0,2.0,68,0.00,,SKC,0.00,VWS V14.01,2013-02-28 06:07:00,
2013-02-28 01:12:00,42.8,33.0,29.82,West,281,1.0,3.0,68,0.00,,SKC,0.00,VWS V14.01,2013-02-28 06:12:00,
2013-02-28 01:17:00,42.8,32.6,29.82,NW,306,0.0,3.0,67,0.00,,SKC,0.00,VWS V14.01,2013-02-28 06:17:00,
2013-02-28 01:23:00,42.7,32.5,29.82,WNW,292,5.0,5.0,67,0.00,,SKC,0.00,VWS V14.01,2013-02-28 06:23:00,
2013-02-28 01:28:00,42.7,32.2,29.82,NW,326,1.0,5.0,66,0.00,,SKC,0.00,VWS V14.01,2013-02-28 06:28:00,
2013-02-28 01:30:00,42.7,32.2,29.82,WNW,300,3.0,5.0,66,0.00,,SKC,0.00,VWS V14.01,2013-02-28 06:30:00,
2013-02-28 01:34:00,42.7,32.2,29.82,WNW,293,1.0,3.0,66,0.00,,SKC,0.00,VWS V14.01,2013-02-28 06:34:00,
2013-02-28 01:39:00,42.5,31.6,29.81,West,274,1.0,5.0,65,0.00,,SKC,0.00,VWS V14.01,2013-02-28 06:39:00,
2013-02-28 01:44:00,42.5,31.6,29.81,West,270,1.0,5.0,65,0.00,,SKC,0.00,VWS V14.01,2013-02-28 06:44:00,
2013-02-28 01:50:00,42.6,31.3,29.82,West,281,1.0,5.0,64,0.00,,SKC,0.00,VWS V14.01,2013-02-28 06:50:00,
2013-02-28 01:55:00,42.4,30.7,29.81,WNW,291,4.0,5.0,63,0.00,,SKC,0.00,VWS V14.01,2013-02-28 06:55:00,
2013-02-28 02:00:00,42.5,30.8,29.81,WNW,296,1.0,5.0,63,0.00,,SKC,0.00,VWS V14.01,2013-02-28 07:00:00,
2013-02-28 02:01:00,42.5,30.8,29.81,NW,311,5.0,5.0,63,0.00,,SKC,0.00,VWS V14.01,2013-02-28 07:01:00,
2013-02-28 02:06:00,42.5,30.0,29.81,West,274,2.0,5.0,61,0.00,,SKC,0.00,VWS V14.01,2013-02-28 07:06:00,
2013-02-28 02:12:00,42.4,29.5,29.81,WNW,297,3.0,5.0,60,0.00,,SKC,0.00,VWS V14.01,2013-02-28 07:12:00,
2013-02-28 02:17:00,42.4,29.1,29.81,WNW,285,2.0,5.0,59,0.00,,SKC,0.00,VWS V14.01,2013-02-28 07:17:00,
2013-02-28 02:22:00,42.4,28.7,29.80,WNW,301,3.0,6.0,58,0.00,,SKC,0.00,VWS V14.01,2013-02-28 07:22:00,
2013-02-28 02:28:00,42.4,28.7,29.80,WNW,292,2.0,6.0,58,0.00,,SKC,0.00,VWS V14.01,2013-02-28 07:28:00,
2013-02-28 02:30:00,42.3,29.0,29.80,West,275,2.0,6.0,59,0.00,,SKC,0.00,VWS V14.01,2013-02-28 07:30:00,
2013-02-28 02:33:00,42.1,28.4,29.80,WNW,288,0.0,4.0,58,0.00,,SKC,0.00,VWS V14.01,2013-02-28 07:33:00,
2013-02-28 02:39:00,42.0,28.3,29.80,WNW,291,1.0,6.0,58,0.00,,SKC,0.00,VWS V14.01,2013-02-28 07:39:00,
2013-02-28 02:44:00,41.9,28.6,29.80,NW,307,4.0,6.0,59,0.00,,SKC,0.00,VWS V14.01,2013-02-28 07:44:00,
2013-02-28 02:50:00,41.8,28.5,29.80,NW,308,6.0,6.0,59,0.00,,SKC,0.00,VWS V14.01,2013-02-28 07:50:00,
2013-02-28 02:55:00,41.7,28.4,29.80,WSW,250,0.0,6.0,59,0.00,,SKC,0.00,VWS V14.01,2013-02-28 07:55:00,
2013-02-28 03:00:00,41.5,28.3,29.80,NNW,328,1.0,7.0,59,0.00,,SKC,0.00,VWS V14.01,2013-02-28 08:00:00,
2013-02-28 03:06:00,41.4,28.6,29.80,West,269,1.0,7.0,60,0.00,,SKC,0.00,VWS V14.01,2013-02-28 08:06:00,
2013-02-28 03:11:00,41.1,28.3,29.80,West,273,1.0,7.0,60,0.00,,SKC,0.00,VWS V14.01,2013-02-28 08:11:00,
2013-02-28 03:17:00,40.9,27.7,29.79,West,262,1.0,7.0,59,0.00,,SKC,0.00,VWS V14.01,2013-02-28 08:17:00,
2013-02-28 03:22:00,40.8,28.0,29.79,WNW,298,1.0,7.0,60,0.00,,SKC,0.00,VWS V14.01,2013-02-28 08:22:00,
2013-02-28 03:28:00,40.7,27.9,29.79,NW,316,4.0,7.0,60,0.00,,SKC,0.00,VWS V14.01,2013-02-28 08:28:00,
2013-02-28 03:30:00,40.7,27.9,29.80,NNW,328,3.0,7.0,60,0.00,,SKC,0.00,VWS V14.01,2013-02-28 08:30:00,
2013-02-28 03:33:00,40.7,27.9,29.80,WNW,294,2.0,6.0,60,0.00,,SKC,0.00,VWS V14.01,2013-02-28 08:33:00,
2013-02-28 03:39:00,40.5,28.1,29.80,West,280,0.0,6.0,61,0.00,,SKC,0.00,VWS V14.01,2013-02-28 08:39:00,
2013-02-28 03:44:00,40.4,28.0,29.80,WNW,300,2.0,6.0,61,0.00,,SKC,0.00,VWS V14.01,2013-02-28 08:44:00,
2013-02-28 03:49:00,40.2,27.8,29.80,West,264,2.0,6.0,61,0.00,,SKC,0.00,VWS V14.01,2013-02-28 08:49:00,
2013-02-28 03:55:00,40.1,27.8,29.79,West,274,0.0,6.0,61,0.00,,SKC,0.00,VWS V14.01,2013-02-28 08:55:00,
2013-02-28 04:00:00,39.9,27.6,29.79,West,280,4.0,4.0,61,0.00,,SKC,0.00,VWS V14.01,2013-02-28 09:00:00,
2013-02-28 04:06:00,39.8,27.5,29.80,West,271,2.0,4.0,61,0.00,,SKC,0.00,VWS V14.01,2013-02-28 09:06:00,
2013-02-28 04:11:00,39.6,27.3,29.80,West,270,2.0,9.0,61,0.00,,SKC,0.00,VWS V14.01,2013-02-28 09:11:00,
2013-02-28 04:17:00,39.6,27.3,29.80,WNW,290,2.0,9.0,61,0.00,,SKC,0.00,VWS V14.01,2013-02-28 09:17:00,
2013-02-28 04:22:00,39.5,26.8,29.79,SSE,160,2.0,9.0,60,0.00,,SKC,0.00,VWS V14.01,2013-02-28 09:22:00,
2013-02-28 04:28:00,39.4,26.7,29.79,NW,316,8.0,9.0,60,0.00,,SKC,0.00,VWS V14.01,2013-02-28 09:28:00,
2013-02-28 04:30:00,39.5,26.8,29.80,WNW,293,0.0,9.0,60,0.00,,SKC,0.00,VWS V14.01,2013-02-28 09:30:00,
2013-02-28 04:33:00,39.4,26.7,29.80,NW,326,2.0,3.0,60,0.00,,SKC,0.00,VWS V14.01,2013-02-28 09:33:00,
2013-02-28 04:38:00,39.2,26.9,29.80,WNW,293,1.0,4.0,61,0.00,,SKC,0.00,VWS V14.01,2013-02-28 09:38:00,
2013-02-28 04:44:00,39.0,26.7,29.80,WSW,255,0.0,5.0,61,0.00,,SKC,0.00,VWS V14.01,2013-02-28 09:44:00,
2013-02-28 04:49:00,38.8,26.9,29.80,WSW,238,3.0,5.0,62,0.00,,SKC,0.00,VWS V14.01,2013-02-28 09:49:00,
2013-02-28 04:55:00,38.7,26.8,29.80,West,263,0.0,5.0,62,0.00,,SKC,0.00,VWS V14.01,2013-02-28 09:55:00,
2013-02-28 05:00:00,38.6,27.1,29.81,WNW,293,1.0,1.0,63,0.00,,SKC,0.00,VWS V14.01,2013-02-28 10:00:00,
2013-02-28 05:06:00,38.4,26.9,29.81,West,274,3.0,4.0,63,0.00,,SKC,0.00,VWS V14.01,2013-02-28 10:06:00,
2013-02-28 05:11:00,38.2,27.1,29.80,WNW,285,0.0,5.0,64,0.00,,SKC,0.00,VWS V14.01,2013-02-28 10:11:00,
2013-02-28 05:16:00,38.1,27.0,29.81,NW,311,3.0,5.0,64,0.00,,SKC,0.00,VWS V14.01,2013-02-28 10:16:00,
2013-02-28 05:22:00,38.0,26.9,29.81,West,260,3.0,5.0,64,0.00,,SKC,0.00,VWS V14.01,2013-02-28 10:22:00,
2013-02-28 05:27:00,37.9,26.8,29.81,WNW,293,0.0,5.0,64,0.00,,SKC,0.00,VWS V14.01,2013-02-28 10:27:00,
2013-02-28 05:30:00,37.9,26.8,29.81,NW,305,2.0,5.0,64,0.00,,SKC,0.00,VWS V14.01,2013-02-28 10:30:00,
2013-02-28 05:33:00,37.8,26.7,29.81,NW,305,2.0,2.0,64,0.00,,SKC,0.00,VWS V14.01,2013-02-28 10:33:00,
2013-02-28 05:38:00,37.8,26.7,29.81,WNW,289,2.0,3.0,64,0.00,,SKC,0.00,VWS V14.01,2013-02-28 10:38:00,
2013-02-28 05:44:00,37.7,26.6,29.81,WSW,257,0.0,3.0,64,0.00,,SKC,0.00,VWS V14.01,2013-02-28 10:44:00,
2013-02-28 05:49:00,37.7,26.6,29.81,WNW,293,0.0,3.0,64,0.00,,SKC,0.00,VWS V14.01,2013-02-28 10:49:00,
2013-02-28 05:55:00,37.6,26.5,29.81,WNW,289,1.0,3.0,64,0.00,,SKC,0.00,VWS V14.01,2013-02-28 10:55:00,
2013-02-28 06:00:00,37.5,26.8,29.81,West,280,3.0,3.0,65,0.00,,SKC,0.00,VWS V14.01,2013-02-28 11:00:00,
2013-02-28 06:05:00,37.4,26.7,29.81,West,269,2.0,3.0,65,0.00,,SKC,0.00,VWS V14.01,2013-02-28 11:05:00,
2013-02-28 06:11:00,37.2,26.2,29.81,West,274,3.0,4.0,64,0.00,,SKC,0.00,VWS V14.01,2013-02-28 11:11:00,
2013-02-28 06:16:00,37.2,25.8,29.81,WNW,295,2.0,4.0,63,0.00,,SKC,0.00,VWS V14.01,2013-02-28 11:16:00,
2013-02-28 06:22:00,37.1,25.3,29.81,NW,305,4.0,4.0,62,0.00,,SKC,0.00,VWS V14.01,2013-02-28 11:22:00,
2013-02-28 06:27:00,36.9,24.7,29.81,NW,316,2.0,4.0,61,0.00,,SKC,0.00,VWS V14.01,2013-02-28 11:27:00,
2013-02-28 06:30:00,36.9,24.7,29.81,WNW,300,2.0,4.0,61,0.00,,SKC,0.00,VWS V14.01,2013-02-28 11:30:00,
2013-02-28 06:33:00,36.9,24.3,29.81,West,274,0.0,7.0,60,0.00,,SKC,0.00,VWS V14.01,2013-02-28 11:33:00,
2013-02-28 06:38:00,36.7,24.1,29.81,NW,315,4.0,7.0,60,0.00,,SKC,0.00,VWS V14.01,2013-02-28 11:38:00,
2013-02-28 06:43:00,36.4,23.9,29.81,WNW,294,0.0,7.0,60,0.00,,SKC,0.00,VWS V14.01,2013-02-28 11:43:00,
2013-02-28 06:49:00,36.3,23.8,29.82,WNW,297,0.0,7.0,60,0.00,,SKC,0.00,VWS V14.01,2013-02-28 11:49:00,
2013-02-28 06:54:00,36.0,23.9,29.82,West,280,1.0,7.0,61,0.00,,SKC,0.00,VWS V14.01,2013-02-28 11:54:00,
2013-02-28 07:00:00,35.9,23.4,29.82,West,270,0.0,1.0,60,0.00,,SKC,0.00,VWS V14.01,2013-02-28 12:00:00,
2013-02-28 07:05:00,35.8,23.7,29.83,West,267,0.0,2.0,61,0.00,,SKC,0.00,VWS V14.01,2013-02-28 12:05:00,
2013-02-28 07:11:00,35.6,23.5,29.83,WNW,298,1.0,2.0,61,0.00,,SKC,0.00,VWS V14.01,2013-02-28 12:11:00,
2013-02-28 07:16:00,35.4,23.7,29.84,WNW,287,2.0,2.0,62,0.00,,SKC,0.00,VWS V14.01,2013-02-28 12:16:00,
2013-02-28 07:22:00,35.3,23.6,29.84,West,269,2.0,2.0,62,0.00,,SKC,0.00,VWS V14.01,2013-02-28 12:22:00,
2013-02-28 07:27:00,35.3,23.2,29.84,WSW,255,0.0,2.0,61,0.00,,SKC,0.00,VWS V14.01,2013-02-28 12:27:00,
2013-02-28 07:30:00,35.4,23.3,29.84,West,273,0.0,2.0,61,0.00,,SKC,0.00,VWS V14.01,2013-02-28 12:30:00,
2013-02-28 07:32:00,35.5,23.4,29.84,WNW,295,1.0,2.0,61,0.00,,SKC,0.00,VWS V14.01,2013-02-28 12:32:00,
2013-02-28 07:38:00,35.7,23.6,29.84,West,269,1.0,2.0,61,0.00,,SKC,0.00,VWS V14.01,2013-02-28 12:38:00,
2013-02-28 07:44:00,36.0,23.5,29.85,WNW,294,1.0,3.0,60,0.00,,SKC,0.00,VWS V14.01,2013-02-28 12:44:00,
2013-02-28 07:49:00,36.3,23.4,29.85,West,281,2.0,5.0,59,0.00,,SKC,0.00,VWS V14.01,2013-02-28 12:49:00,
2013-02-28 07:54:00,36.5,23.5,29.85,WNW,294,4.0,5.0,59,0.00,,SKC,0.00,VWS V14.01,2013-02-28 12:54:00,
2013-02-28 08:00:00,36.7,23.7,29.85,WNW,296,1.0,1.0,59,0.00,,SKC,0.00,VWS V14.01,2013-02-28 13:00:00,
2013-02-28 08:05:00,37.1,23.7,29.85,West,267,2.0,3.0,58,0.00,,SKC,0.00,VWS V14.01,2013-02-28 13:05:00,
2013-02-28 08:11:00,37.3,23.9,29.85,WNW,297,0.0,3.0,58,0.00,,SKC,0.00,VWS V14.01,2013-02-28 13:11:00,
2013-02-28 08:16:00,37.6,23.8,29.85,WNW,300,2.0,3.0,57,0.00,,SKC,0.00,VWS V14.01,2013-02-28 13:16:00,
2013-02-28 08:21:00,37.9,23.6,29.86,WNW,300,2.0,3.0,56,0.00,,SKC,0.00,VWS V14.01,2013-02-28 13:21:00,
2013-02-28 08:27:00,38.2,23.9,29.86,WNW,288,3.0,3.0,56,0.00,,SKC,0.00,VWS V14.01,2013-02-28 13:27:00,
2013-02-28 08:30:00,38.3,24.0,29.86,WNW,286,0.0,4.0,56,0.00,,SKC,0.00,VWS V14.01,2013-02-28 13:30:00,
2013-02-28 08:32:00,38.5,23.8,29.86,WNW,298,1.0,3.0,55,0.00,,SKC,0.00,VWS V14.01,2013-02-28 13:32:00,
2013-02-28 08:38:00,39.1,24.7,29.87,West,265,1.0,3.0,56,0.00,,SKC,0.00,VWS V14.01,2013-02-28 13:38:00,
2013-02-28 08:43:00,39.5,24.7,29.87,WNW,292,0.0,4.0,55,0.00,,SKC,0.00,VWS V14.01,2013-02-28 13:43:00,
2013-02-28 08:49:00,39.8,24.5,29.87,West,271,0.0,4.0,54,0.00,,SKC,0.00,VWS V14.01,2013-02-28 13:49:00,
2013-02-28 08:54:00,40.2,24.5,29.87,NW,308,2.0,4.0,53,0.00,,SKC,0.00,VWS V14.01,2013-02-28 13:54:00,
2013-02-28 08:59:00,40.8,24.5,29.87,WNW,284,1.0,1.0,52,0.00,,SKC,0.00,VWS V14.01,2013-02-28 13:59:00,
2013-02-28 09:00:00,40.8,24.5,29.87,West,278,0.0,4.0,52,0.00,,SKC,0.00,VWS V14.01,2013-02-28 14:00:00,
2013-02-28 09:05:00,41.3,25.0,29.87,West,276,0.0,1.0,52,0.00,,SKC,0.00,VWS V14.01,2013-02-28 14:05:00,
2013-02-28 09:10:00,41.3,24.5,29.87,West,281,0.0,3.0,51,0.00,,SKC,0.00,VWS V14.01,2013-02-28 14:10:00,
2013-02-28 09:16:00,41.3,25.0,29.87,WNW,294,1.0,5.0,52,0.00,,SKC,0.00,VWS V14.01,2013-02-28 14:16:00,
2013-02-28 09:21:00,41.5,25.2,29.87,West,274,1.0,5.0,52,0.00,,SKC,0.00,VWS V14.01,2013-02-28 14:21:00,
2013-02-28 09:27:00,41.3,24.5,29.87,West,269,2.0,5.0,51,0.00,,SKC,0.00,VWS V14.01,2013-02-28 14:27:00,
2013-02-28 09:30:00,41.2,24.9,29.87,NW,305,3.0,5.0,52,0.00,,SKC,0.00,VWS V14.01,2013-02-28 14:30:00,
2013-02-28 09:32:00,41.1,24.8,29.87,WNW,298,3.0,3.0,52,0.00,,SKC,0.00,VWS V14.01,2013-02-28 14:32:00,
2013-02-28 09:37:00,41.2,25.4,29.87,SW,217,0.0,5.0,53,0.00,,SKC,0.00,VWS V14.01,2013-02-28 14:37:00,
2013-02-28 09:43:00,41.6,25.8,29.87,West,266,4.0,5.0,53,0.00,,SKC,0.00,VWS V14.01,2013-02-28 14:43:00,
2013-02-28 09:48:00,42.0,26.1,29.87,West,271,0.0,5.0,53,0.00,,SKC,0.00,VWS V14.01,2013-02-28 14:48:00,
2013-02-28 09:54:00,42.2,25.4,29.87,NW,325,8.0,8.0,51,0.00,,SKC,0.00,VWS V14.01,2013-02-28 14:54:00,
2013-02-28 09:59:00,42.0,24.7,29.87,WNW,300,0.0,8.0,50,0.00,,SKC,0.00,VWS V14.01,2013-02-28 14:59:00,
2013-02-28 10:00:00,42.0,24.7,29.87,WNW,300,0.0,8.0,50,0.00,,SKC,0.00,VWS V14.01,2013-02-28 15:00:00,
2013-02-28 10:05:00,41.9,25.6,29.86,NW,319,3.0,3.0,52,0.00,,SKC,0.00,VWS V14.01,2013-02-28 15:05:00,
2013-02-28 10:10:00,42.1,25.3,29.86,WSW,252,2.0,4.0,51,0.00,,SKC,0.00,VWS V14.01,2013-02-28 15:10:00,
2013-02-28 10:15:00,42.5,27.0,29.86,WNW,289,0.0,4.0,54,0.00,,SKC,0.00,VWS V14.01,2013-02-28 15:15:00,
2013-02-28 10:21:00,43.3,26.4,29.86,West,277,1.0,4.0,51,0.00,,SKC,0.00,VWS V14.01,2013-02-28 15:21:00,
2013-02-28 10:26:00,43.2,25.4,29.86,NW,309,2.0,4.0,49,0.00,,SKC,0.00,VWS V14.01,2013-02-28 15:26:00,
2013-02-28 10:30:00,43.2,26.3,29.86,NW,310,1.0,4.0,51,0.00,,SKC,0.00,VWS V14.01,2013-02-28 15:30:00,
2013-02-28 10:32:00,43.2,25.4,29.86,NW,309,1.0,3.0,49,0.00,,SKC,0.00,VWS V14.01,2013-02-28 15:32:00,
2013-02-28 10:37:00,43.3,25.9,29.86,WSW,246,0.0,3.0,50,0.00,,SKC,0.00,VWS V14.01,2013-02-28 15:37:00,
2013-02-28 10:43:00,43.7,26.8,29.86,West,276,2.0,3.0,51,0.00,,SKC,0.00,VWS V14.01,2013-02-28 15:43:00,
2013-02-28 10:48:00,43.5,26.6,29.86,NW,313,1.0,4.0,51,0.00,,SKC,0.00,VWS V14.01,2013-02-28 15:48:00,
2013-02-28 10:53:00,43.2,25.8,29.86,WSW,253,0.0,8.0,50,0.00,,SKC,0.00,VWS V14.01,2013-02-28 15:53:00,
2013-02-28 10:59:00,43.3,27.3,29.87,East,86,0.0,8.0,53,0.00,,SKC,0.00,VWS V14.01,2013-02-28 15:59:00,
2013-02-28 11:00:00,43.3,27.3,29.87,WNW,284,1.0,8.0,53,0.00,,SKC,0.00,VWS V14.01,2013-02-28 16:00:00,
2013-02-28 11:04:00,43.6,26.7,29.87,WNW,285,0.0,1.0,51,0.00,,SKC,0.00,VWS V14.01,2013-02-28 16:04:00,
2013-02-28 11:10:00,43.8,27.3,29.87,NW,308,0.0,3.0,52,0.00,,SKC,0.00,VWS V14.01,2013-02-28 16:10:00,
2013-02-28 11:15:00,43.9,26.0,29.87,West,274,0.0,3.0,49,0.00,,SKC,0.00,VWS V14.01,2013-02-28 16:15:00,
2013-02-28 11:21:00,43.8,25.9,29.87,ESE,122,1.0,3.0,49,0.00,,SKC,0.00,VWS V14.01,2013-02-28 16:21:00,
2013-02-28 11:26:00,43.7,26.3,29.87,WSW,249,2.0,3.0,50,0.00,,SKC,0.00,VWS V14.01,2013-02-28 16:26:00,
2013-02-28 11:30:00,43.8,27.3,29.87,WNW,293,0.0,3.0,52,0.00,,SKC,0.00,VWS V14.01,2013-02-28 16:30:00,
2013-02-28 11:31:00,43.9,26.0,29.87,West,279,2.0,4.0,49,0.00,,SKC,0.00,VWS V14.01,2013-02-28 16:31:00,
2013-02-28 11:37:00,43.7,26.3,29.87,WNW,284,3.0,4.0,50,0.00,,SKC,0.00,VWS V14.01,2013-02-28 16:37:00,
2013-02-28 11:42:00,44.4,26.0,29.87,West,279,3.0,7.0,48,0.00,,SKC,0.00,VWS V14.01,2013-02-28 16:42:00,
2013-02-28 11:48:00,44.8,26.8,29.87,West,278,1.0,7.0,49,0.00,,SKC,0.00,VWS V14.01,2013-02-28 16:48:00,
2013-02-28 11:53:00,46.0,27.4,29.87,WNW,294,1.0,7.0,48,0.00,,SKC,0.00,VWS V14.01,2013-02-28 16:53:00,
2013-02-28 11:59:00,46.9,27.2,29.87,West,273,0.0,7.0,46,0.00,,SKC,0.00,VWS V14.01,2013-02-28 16:59:00,
2013-02-28 12:00:00,47.0,27.3,29.87,WNW,288,4.0,7.0,46,0.00,,SKC,0.00,VWS V14.01,2013-02-28 17:00:00,
2013-02-28 12:04:00,46.4,27.3,29.87,WNW,288,1.0,8.0,47,0.00,,SKC,0.00,VWS V14.01,2013-02-28 17:04:00,
2013-02-28 12:10:00,45.9,26.3,29.87,WNW,298,4.0,8.0,46,0.00,,SKC,0.00,VWS V14.01,2013-02-28 17:10:00,
2013-02-28 12:15:00,45.7,26.1,29.87,NW,323,1.0,8.0,46,0.00,,SKC,0.00,VWS V14.01,2013-02-28 17:15:00,
2013-02-28 12:20:00,45.9,26.8,29.87,WNW,302,3.0,8.0,47,0.00,,SKC,0.00,VWS V14.01,2013-02-28 17:20:00,
2013-02-28 12:26:00,46.6,28.0,29.87,West,277,1.0,8.0,48,0.00,,SKC,0.00,VWS V14.01,2013-02-28 17:26:00,
2013-02-28 12:30:00,47.1,26.9,29.86,SW,233,0.0,8.0,45,0.00,,SKC,0.00,VWS V14.01,2013-02-28 17:30:00,
2013-02-28 12:31:00,47.4,27.1,29.87,NW,311,3.0,5.0,45,0.00,,SKC,0.00,VWS V14.01,2013-02-28 17:31:00,
2013-02-28 12:37:00,47.6,26.2,29.86,NNW,348,1.0,6.0,43,0.00,,SKC,0.00,VWS V14.01,2013-02-28 17:37:00,
2013-02-28 12:42:00,47.5,27.2,29.86,West,266,2.0,6.0,45,0.00,,SKC,0.00,VWS V14.01,2013-02-28 17:42:00,
2013-02-28 12:48:00,48.7,27.8,29.86,West,270,2.0,6.0,44,0.00,,SKC,0.00,VWS V14.01,2013-02-28 17:48:00,
2013-02-28 12:53:00,48.7,27.2,29.86,WNW,284,5.0,6.0,43,0.00,,SKC,0.00,VWS V14.01,2013-02-28 17:53:00,
2013-02-28 12:59:00,48.6,26.6,29.86,West,272,5.0,8.0,42,0.00,,SKC,0.00,VWS V14.01,2013-02-28 17:59:00,
2013-02-28 13:00:00,48.6,26.6,29.85,WSW,250,0.0,8.0,42,0.00,,SKC,0.00,VWS V14.01,2013-02-28 18:00:00,
2013-02-28 13:04:00,48.7,26.6,29.85,WNW,283,2.0,7.0,42,0.00,,SKC,0.00,VWS V14.01,2013-02-28 18:04:00,
2013-02-28 13:10:00,48.9,26.2,29.85,NW,326,7.0,8.0,41,0.00,,SKC,0.00,VWS V14.01,2013-02-28 18:10:00,
2013-02-28 13:15:00,48.5,25.9,29.85,NNW,335,4.0,8.0,41,0.00,,SKC,0.00,VWS V14.01,2013-02-28 18:15:00,
2013-02-28 13:20:00,48.2,27.9,29.85,NE,47,2.0,8.0,45,0.00,,SKC,0.00,VWS V14.01,2013-02-28 18:20:00,
2013-02-28 13:26:00,48.5,27.6,29.85,West,271,3.0,8.0,44,0.00,,SKC,0.00,VWS V14.01,2013-02-28 18:26:00,
2013-02-28 13:30:00,48.0,25.4,29.85,WNW,293,5.0,8.0,41,0.00,,SKC,0.00,VWS V14.01,2013-02-28 18:30:00,
2013-02-28 13:31:00,47.8,25.8,29.84,NW,322,1.0,5.0,42,0.00,,SKC,0.00,VWS V14.01,2013-02-28 18:31:00,
2013-02-28 13:37:00,47.5,25.0,29.84,WSW,256,0.0,6.0,41,0.00,,SKC,0.00,VWS V14.01,2013-02-28 18:37:00,
2013-02-28 13:42:00,48.2,26.2,29.84,SW,236,1.0,6.0,42,0.00,,SKC,0.00,VWS V14.01,2013-02-28 18:42:00,
2013-02-28 13:48:00,49.5,26.8,29.85,West,276,7.0,7.0,41,0.00,,SKC,0.00,VWS V14.01,2013-02-28 18:48:00,
2013-02-28 13:53:00,50.0,25.4,29.85,West,269,4.0,7.0,38,0.00,,SKC,0.00,VWS V14.01,2013-02-28 18:53:00,
2013-02-28 13:58:00,49.2,27.1,29.85,West,262,2.0,7.0,42,0.00,,SKC,0.00,VWS V14.01,2013-02-28 18:58:00,
2013-02-28 14:00:00,49.3,27.2,29.85,WNW,284,1.0,7.0,42,0.00,,SKC,0.00,VWS V14.01,2013-02-28 19:00:00,
2013-02-28 14:04:00,49.1,25.2,29.85,WSW,255,2.0,8.0,39,0.00,,SKC,0.00,VWS V14.01,2013-02-28 19:04:00,
2013-02-28 14:09:00,48.6,25.4,29.85,West,274,3.0,8.0,40,0.00,,SKC,0.00,VWS V14.01,2013-02-28 19:09:00,
2013-02-28 14:15:00,49.0,26.9,29.84,WNW,290,3.0,8.0,42,0.00,,SKC,0.00,VWS V14.01,2013-02-28 19:15:00,
2013-02-28 14:20:00,49.3,26.0,29.84,West,276,3.0,8.0,40,0.00,,SKC,0.00,VWS V14.01,2013-02-28 19:20:00,
2013-02-28 14:26:00,49.9,25.3,29.84,West,278,3.0,8.0,38,0.00,,SKC,0.00,VWS V14.01,2013-02-28 19:26:00,
2013-02-28 14:30:00,49.9,25.3,29.85,West,266,8.0,8.0,38,0.00,,SKC,0.00,VWS V14.01,2013-02-28 19:30:00,
2013-02-28 14:31:00,49.6,25.0,29.85,West,273,4.0,8.0,38,0.00,,SKC,0.00,VWS V14.01,2013-02-28 19:31:00,
2013-02-28 14:37:00,49.3,25.4,29.85,North,349,0.0,8.0,39,0.00,,SKC,0.00,VWS V14.01,2013-02-28 19:37:00,
2013-02-28 14:42:00,49.0,25.8,29.85,West,270,1.0,8.0,40,0.00,,SKC,0.00,VWS V14.01,2013-02-28 19:42:00,
2013-02-28 14:47:00,49.6,25.7,29.85,WNW,289,4.0,8.0,39,0.00,,SKC,0.00,VWS V14.01,2013-02-28 19:47:00,
2013-02-28 14:53:00,49.6,25.7,29.85,SSW,210,1.0,14.0,39,0.00,,SKC,0.00,VWS V14.01,2013-02-28 19:53:00,
2013-02-28 14:58:00,50.0,26.0,29.84,WSW,250,4.0,14.0,39,0.00,,SKC,0.00,VWS V14.01,2013-02-28 19:58:00,
2013-02-28 15:00:00,50.0,26.0,29.84,SE,128,2.0,14.0,39,0.00,,SKC,0.00,VWS V14.01,2013-02-28 20:00:00,
2013-02-28 15:04:00,50.0,26.0,29.84,WSW,241,0.0,6.0,39,0.00,,SKC,0.00,VWS V14.01,2013-02-28 20:04:00,
2013-02-28 15:09:00,50.0,26.0,29.85,WNW,291,6.0,7.0,39,0.00,,SKC,0.00,VWS V14.01,2013-02-28 20:09:00,
2013-02-28 15:15:00,49.6,25.7,29.85,WNW,297,5.0,7.0,39,0.00,,SKC,0.00,VWS V14.01,2013-02-28 20:15:00,
2013-02-28 15:20:00,49.0,25.8,29.85,NNE,23,3.0,7.0,40,0.00,,SKC,0.00,VWS V14.01,2013-02-28 20:20:00,
2013-02-28 15:25:00,48.2,25.6,29.85,West,265,7.0,7.0,41,0.00,,SKC,0.00,VWS V14.01,2013-02-28 20:25:00,
2013-02-28 15:30:00,47.8,25.3,29.85,SW,225,1.0,7.0,41,0.00,,SKC,0.00,VWS V14.01,2013-02-28 20:30:00,
2013-02-28 15:31:00,47.7,26.3,29.85,West,269,1.0,1.0,43,0.00,,SKC,0.00,VWS V14.01,2013-02-28 20:31:00,
2013-02-28 15:36:00,47.7,26.3,29.85,West,266,1.0,5.0,43,0.00,,SKC,0.00,VWS V14.01,2013-02-28 20:36:00,
2013-02-28 15:42:00,47.5,25.6,29.85,WNW,291,5.0,8.0,42,0.00,,SKC,0.00,VWS V14.01,2013-02-28 20:42:00,
2013-02-28 15:47:00,47.4,25.5,29.86,WNW,300,3.0,8.0,42,0.00,,SKC,0.00,VWS V14.01,2013-02-28 20:47:00,
2013-02-28 15:53:00,47.3,25.4,29.86,NE,44,0.0,8.0,42,0.00,,SKC,0.00,VWS V14.01,2013-02-28 20:53:00,
2013-02-28 15:58:00,47.6,26.8,29.85,SW,220,0.0,8.0,44,0.00,,SKC,0.00,VWS V14.01,2013-02-28 20:58:00,
2013-02-28 16:00:00,47.7,26.9,29.86,West,267,1.0,8.0,44,0.00,,SKC,0.00,VWS V14.01,2013-02-28 21:00:00,
2013-02-28 16:03:00,48.3,26.3,29.86,NW,304,1.0,8.0,42,0.00,,SKC,0.00,VWS V14.01,2013-02-28 21:03:00,
2013-02-28 16:09:00,48.6,26.6,29.86,West,281,0.0,8.0,42,0.00,,SKC,0.00,VWS V14.01,2013-02-28 21:09:00,
2013-02-28 16:14:00,48.5,25.3,29.87,WNW,297,7.0,8.0,40,0.00,,SKC,0.00,VWS V14.01,2013-02-28 21:14:00,
2013-02-28 16:20:00,47.9,24.8,29.87,WNW,290,7.0,9.0,40,0.00,,SKC,0.00,VWS V14.01,2013-02-28 21:20:00,
2013-02-28 16:25:00,47.4,25.5,29.87,West,280,5.0,9.0,42,0.00,,SKC,0.00,VWS V14.01,2013-02-28 21:25:00,
2013-02-28 16:30:00,47.1,25.8,29.87,WNW,283,2.0,9.0,43,0.00,,SKC,0.00,VWS V14.01,2013-02-28 21:30:00,
2013-02-28 16:31:00,47.1,25.8,29.87,WNW,296,4.0,4.0,43,0.00,,SKC,0.00,VWS V14.01,2013-02-28 21:31:00,
2013-02-28 16:36:00,46.8,24.9,29.87,NNE,27,1.0,7.0,42,0.00,,SKC,0.00,VWS V14.01,2013-02-28 21:36:00,
2013-02-28 16:42:00,46.5,24.7,29.87,NW,315,2.0,11.0,42,0.00,,SKC,0.00,VWS V14.01,2013-02-28 21:42:00,
2013-02-28 16:47:00,46.5,25.2,29.88,NW,304,3.0,11.0,43,0.00,,SKC,0.00,VWS V14.01,2013-02-28 21:47:00,
2013-02-28 16:52:00,46.2,25.0,29.88,NW,316,6.0,11.0,43,0.00,,SKC,0.00,VWS V14.01,2013-02-28 21:52:00,
2013-02-28 16:58:00,46.0,25.3,29.88,NW,314,3.0,11.0,44,0.00,,SKC,0.00,VWS V14.01,2013-02-28 21:58:00,
2013-02-28 17:00:00,45.9,24.7,29.89,NW,312,2.0,11.0,43,0.00,,SKC,0.00,VWS V14.01,2013-02-28 22:00:00,
2013-02-28 17:03:00,45.7,25.0,29.89,NW,307,3.0,5.0,44,0.00,,SKC,0.00,VWS V14.01,2013-02-28 22:03:00,
2013-02-28 17:09:00,45.5,24.9,29.89,West,264,1.0,10.0,44,0.00,,SKC,0.00,VWS V14.01,2013-02-28 22:09:00,
2013-02-28 17:14:00,45.0,24.4,29.89,WNW,284,1.0,10.0,44,0.00,,SKC,0.00,VWS V14.01,2013-02-28 22:14:00,
2013-02-28 17:20:00,45.0,25.5,29.89,WNW,300,2.0,11.0,46,0.00,,SKC,0.00,VWS V14.01,2013-02-28 22:20:00,
2013-02-28 17:25:00,45.2,25.7,29.90,West,271,2.0,11.0,46,0.00,,SKC,0.00,VWS V14.01,2013-02-28 22:25:00,
2013-02-28 17:30:00,44.9,25.4,29.89,WSW,249,1.0,1.0,46,0.00,,SKC,0.00,VWS V14.01,2013-02-28 22:30:00,
2013-02-28 17:36:00,44.5,25.0,29.89,West,266,3.0,7.0,46,0.00,,SKC,0.00,VWS V14.01,2013-02-28 22:36:00,
2013-02-28 17:41:00,43.9,24.5,29.90,NW,309,2.0,7.0,46,0.00,,SKC,0.00,VWS V14.01,2013-02-28 22:41:00,
2013-02-28 17:47:00,43.2,23.8,29.90,NW,316,6.0,9.0,46,0.00,,SKC,0.00,VWS V14.01,2013-02-28 22:47:00,
2013-02-28 17:52:00,42.6,23.8,29.90,NW,308,5.0,9.0,47,0.00,,SKC,0.00,VWS V14.01,2013-02-28 22:52:00,
2013-02-28 17:58:00,42.3,24.0,29.91,SW,233,0.0,9.0,48,0.00,,SKC,0.00,VWS V14.01,2013-02-28 22:58:00,
2013-02-28 18:00:00,42.2,23.9,29.91,NW,314,0.0,9.0,48,0.00,,SKC,0.00,VWS V14.01,2013-02-28 23:00:00,
2013-02-28 18:03:00,41.9,23.7,29.91,NW,307,7.0,7.0,48,0.00,,SKC,0.00,VWS V14.01,2013-02-28 23:03:00,
2013-02-28 18:08:00,41.5,23.8,29.91,WSW,257,1.0,7.0,49,0.00,,SKC,0.00,VWS V14.01,2013-02-28 23:08:00,
2013-02-28 18:14:00,41.2,23.5,29.91,West,273,2.0,9.0,49,0.00,,SKC,0.00,VWS V14.01,2013-02-28 23:14:00,
2013-02-28 18:19:00,40.9,23.7,29.92,WNW,292,2.0,9.0,50,0.00,,SKC,0.00,VWS V14.01,2013-02-28 23:19:00,
2013-02-28 18:25:00,40.6,23.4,29.92,WNW,283,2.0,9.0,50,0.00,,SKC,0.00,VWS V14.01,2013-02-28 23:25:00,
2013-02-28 18:30:00,40.3,23.1,29.92,WNW,300,3.0,3.0,50,0.00,,SKC,0.00,VWS V14.01,2013-02-28 23:30:00,
2013-02-28 18:36:00,40.0,23.4,29.92,West,277,1.0,4.0,51,0.00,,SKC,0.00,VWS V14.01,2013-02-28 23:36:00,
2013-02-28 18:41:00,39.8,23.6,29.93,West,271,0.0,4.0,52,0.00,,SKC,0.00,VWS V14.01,2013-02-28 23:41:00,
2013-02-28 18:47:00,39.5,23.8,29.93,West,278,1.0,4.0,53,0.00,,SKC,0.00,VWS V14.01,2013-02-28 23:47:00,
2013-02-28 18:52:00,39.3,23.6,29.93,West,273,3.0,4.0,53,0.00,,SKC,0.00,VWS V14.01,2013-02-28 23:52:00,
2013-02-28 18:59:00,39.1,23.4,29.93,WNW,302,5.0,5.0,53,0.00,,SKC,0.00,VWS V14.01,2013-02-28 23:59:00,
2013-02-28 19:00:00,39.1,23.4,29.93,WNW,302,5.0,5.0,53,0.00,,SKC,0.00,VWS V14.01,2013-03-01 00:00:00,
2013-02-28 19:04:00,38.9,23.2,29.93,ESE,107,0.0,5.0,53,0.00,,SKC,0.00,VWS V14.01,2013-03-01 00:04:00,
2013-02-28 19:10:00,38.7,23.5,29.93,WNW,290,1.0,5.0,54,0.00,,SKC,0.00,VWS V14.01,2013-03-01 00:10:00,
2013-02-28 19:15:00,38.4,23.7,29.93,WNW,294,0.0,5.0,55,0.00,,SKC,0.00,VWS V14.01,2013-03-01 00:15:00,
2013-02-28 19:21:00,38.2,23.9,29.93,WNW,283,2.0,5.0,56,0.00,,SKC,0.00,VWS V14.01,2013-03-01 00:21:00,
2013-02-28 19:26:00,37.9,24.5,29.92,WNW,295,0.0,5.0,58,0.00,,SKC,0.00,VWS V14.01,2013-03-01 00:26:00,
2013-02-28 19:30:00,37.7,24.3,29.92,West,274,0.0,5.0,58,0.00,,SKC,0.00,VWS V14.01,2013-03-01 00:30:00,
2013-02-28 19:31:00,37.7,24.3,29.93,West,259,0.0,2.0,58,0.00,,SKC,0.00,VWS V14.01,2013-03-01 00:31:00,
2013-02-28 19:37:00,37.5,24.5,29.93,WNW,293,1.0,4.0,59,0.00,,SKC,0.00,VWS V14.01,2013-03-01 00:37:00,
2013-02-28 19:42:00,37.3,24.3,29.93,West,263,0.0,4.0,59,0.00,,SKC,0.00,VWS V14.01,2013-03-01 00:42:00,
2013-02-28 19:48:00,37.1,24.5,29.93,West,274,0.0,4.0,60,0.00,,SKC,0.00,VWS V14.01,2013-03-01 00:48:00,
2013-02-28 19:53:00,37.0,24.4,29.94,West,276,0.0,4.0,60,0.00,,SKC,0.00,VWS V14.01,2013-03-01 00:53:00,
2013-02-28 19:59:00,36.8,24.2,29.94,NW,312,0.0,4.0,60,0.00,,SKC,0.00,VWS V14.01,2013-03-01 00:59:00,
2013-02-28 20:00:00,36.8,24.2,29.94,West,280,1.0,4.0,60,0.00,,SKC,0.00,VWS V14.01,2013-03-01 01:00:00,
2013-02-28 20:04:00,36.7,24.1,29.94,West,263,0.0,2.0,60,0.00,,SKC,0.00,VWS V14.01,2013-03-01 01:04:00,
2013-02-28 20:10:00,36.3,24.1,29.94,WNW,282,2.0,2.0,61,0.00,,SKC,0.00,VWS V14.01,2013-03-01 01:10:00,
2013-02-28 20:15:00,36.5,24.3,29.94,West,264,0.0,3.0,61,0.00,,SKC,0.00,VWS V14.01,2013-03-01 01:15:00,
2013-02-28 20:20:00,36.3,24.5,29.94,West,264,0.0,3.0,62,0.00,,SKC,0.00,VWS V14.01,2013-03-01 01:20:00,
2013-02-28 20:26:00,35.9,24.2,29.94,West,277,0.0,3.0,62,0.00,,SKC,0.00,VWS V14.01,2013-03-01 01:26:00,
2013-02-28 20:30:00,35.7,24.0,29.94,West,277,0.0,3.0,62,0.00,,SKC,0.00,VWS V14.01,2013-03-01 01:30:00,
2013-02-28 20:31:00,35.6,24.3,29.94,WNW,290,0.0,0.0,63,0.00,,SKC,0.00,VWS V14.01,2013-03-01 01:31:00,
2013-02-28 20:37:00,35.3,24.0,29.95,East,94,0.0,0.0,63,0.00,,SKC,0.00,VWS V14.01,2013-03-01 01:37:00,
2013-02-28 20:42:00,35.1,23.8,29.94,East,95,0.0,0.0,63,0.00,,SKC,0.00,VWS V14.01,2013-03-01 01:42:00,
2013-02-28 20:48:00,35.0,24.1,29.95,NNE,16,0.0,0.0,64,0.00,,SKC,0.00,VWS V14.01,2013-03-01 01:48:00,
2013-02-28 20:53:00,34.8,23.9,29.95,West,269,0.0,0.0,64,0.00,,SKC,0.00,VWS V14.01,2013-03-01 01:53:00,
2013-02-28 20:59:00,34.7,23.8,29.95,West,270,0.0,0.0,64,0.00,,SKC,0.00,VWS V14.01,2013-03-01 01:59:00,
2013-02-28 21:00:00,34.6,23.7,29.95,West,269,0.0,0.0,64,0.00,,SKC,0.00,VWS V14.01,2013-03-01 02:00:00,
2013-02-28 21:04:00,34.5,23.6,29.95,West,269,0.0,0.0,64,0.00,,SKC,0.00,VWS V14.01,2013-03-01 02:04:00,
2013-02-28 21:09:00,34.3,23.4,29.95,West,269,0.0,0.0,64,0.00,,SKC,0.00,VWS V14.01,2013-03-01 02:09:00,
2013-02-28 21:15:00,34.2,23.7,29.95,West,269,0.0,0.0,65,0.00,,SKC,0.00,VWS V14.01,2013-03-01 02:15:00,
2013-02-28 21:20:00,34.0,23.9,29.96,West,269,0.0,0.0,66,0.00,,SKC,0.00,VWS V14.01,2013-03-01 02:20:00,
2013-02-28 21:26:00,33.9,23.8,29.95,West,269,0.0,0.0,66,0.00,,SKC,0.00,VWS V14.01,2013-03-01 02:26:00,
2013-02-28 21:30:00,33.8,24.0,29.96,West,269,0.0,0.0,67,0.00,,SKC,0.00,VWS V14.01,2013-03-01 02:30:00,
2013-02-28 21:31:00,33.7,23.9,29.96,West,269,0.0,0.0,67,0.00,,SKC,0.00,VWS V14.01,2013-03-01 02:31:00,
2013-02-28 21:37:00,33.6,23.5,29.96,West,269,0.0,0.0,66,0.00,,SKC,0.00,VWS V14.01,2013-03-01 02:37:00,
2013-02-28 21:42:00,33.5,23.4,29.95,West,269,0.0,0.0,66,0.00,,SKC,0.00,VWS V14.01,2013-03-01 02:42:00,
2013-02-28 21:47:00,33.5,23.4,29.96,West,269,0.0,0.0,66,0.00,,SKC,0.00,VWS V14.01,2013-03-01 02:47:00,
2013-02-28 21:53:00,33.6,23.1,29.96,West,269,0.0,1.0,65,0.00,,SKC,0.00,VWS V14.01,2013-03-01 02:53:00,
2013-02-28 21:58:00,33.5,23.0,29.96,West,269,0.0,1.0,65,0.00,,SKC,0.00,VWS V14.01,2013-03-01 02:58:00,
2013-02-28 22:00:00,33.5,23.0,29.96,West,269,0.0,1.0,65,0.00,,SKC,0.00,VWS V14.01,2013-03-01 03:00:00,
2013-02-28 22:04:00,33.5,23.0,29.96,West,269,0.0,0.0,65,0.00,,SKC,0.00,VWS V14.01,2013-03-01 03:04:00,
2013-02-28 22:09:00,33.5,23.7,29.96,West,269,0.0,0.0,67,0.00,,SKC,0.00,VWS V14.01,2013-03-01 03:09:00,
2013-02-28 22:15:00,33.4,23.6,29.96,West,269,0.0,0.0,67,0.00,,SKC,0.00,VWS V14.01,2013-03-01 03:15:00,
2013-02-28 22:20:00,33.2,23.5,29.96,West,269,0.0,0.0,67,0.00,,SKC,0.00,VWS V14.01,2013-03-01 03:20:00,
2013-02-28 22:25:00,33.1,23.7,29.96,West,269,0.0,0.0,68,0.00,,SKC,0.00,VWS V14.01,2013-03-01 03:25:00,
2013-02-28 22:30:00,32.9,23.5,29.95,West,269,0.0,0.0,68,0.00,,SKC,0.00,VWS V14.01,2013-03-01 03:30:00,
2013-02-28 22:31:00,32.9,23.5,29.95,West,269,0.0,0.0,68,0.00,,SKC,0.00,VWS V14.01,2013-03-01 03:31:00,
2013-02-28 22:36:00,32.8,23.8,29.95,West,269,0.0,0.0,69,0.00,,SKC,0.00,VWS V14.01,2013-03-01 03:36:00,
2013-02-28 22:42:00,32.7,23.7,29.96,West,269,0.0,0.0,69,0.00,,SKC,0.00,VWS V14.01,2013-03-01 03:42:00,
2013-02-28 22:47:00,32.7,23.7,29.96,West,269,0.0,0.0,69,0.00,,SKC,0.00,VWS V14.01,2013-03-01 03:47:00,
2013-02-28 22:53:00,32.8,23.8,29.96,WNW,294,1.0,1.0,69,0.00,,SKC,0.00,VWS V14.01,2013-03-01 03:53:00,
2013-02-28 22:58:00,32.8,23.4,29.96,WNW,290,0.0,1.0,68,0.00,,SKC,0.00,VWS V14.01,2013-03-01 03:58:00,
2013-02-28 23:00:00,32.8,23.4,29.96,WNW,290,0.0,1.0,68,0.00,,SKC,0.00,VWS V14.01,2013-03-01 04:00:00,
2013-02-28 23:03:00,32.8,23.4,29.96,WNW,290,0.0,0.0,68,0.00,,SKC,0.00,VWS V14.01,2013-03-01 04:03:00,
2013-02-28 23:09:00,32.7,23.7,29.95,WNW,288,1.0,1.0,69,0.00,,SKC,0.00,VWS V14.01,2013-03-01 04:09:00,
2013-02-28 23:14:00,32.6,23.9,29.96,WNW,288,0.0,1.0,70,0.00,,SKC,0.00,VWS V14.01,2013-03-01 04:14:00,
2013-02-28 23:20:00,32.4,23.4,29.95,West,281,0.0,1.0,69,0.00,,SKC,0.00,VWS V14.01,2013-03-01 04:20:00,
2013-02-28 23:25:00,32.2,23.5,29.96,WNW,285,1.0,1.0,70,0.00,,SKC,0.00,VWS V14.01,2013-03-01 04:25:00,
2013-02-28 23:30:00,32.1,23.8,29.96,WNW,298,0.0,1.0,71,0.00,,SKC,0.00,VWS V14.01,2013-03-01 04:30:00,
2013-02-28 23:31:00,32.1,23.8,29.96,West,278,0.0,0.0,71,0.00,,SKC,0.00,VWS V14.01,2013-03-01 04:31:00,
2013-02-28 23:36:00,32.0,24.0,29.96,West,277,0.0,1.0,72,0.00,,SKC,0.00,VWS V14.01,2013-03-01 04:36:00,
2013-02-28 23:41:00,31.9,23.9,29.96,WNW,282,1.0,1.0,72,0.00,,SKC,0.00,VWS V14.01,2013-03-01 04:41:00,
2013-02-28 23:47:00,31.9,23.6,29.96,West,274,1.0,1.0,71,0.00,,SKC,0.00,VWS V14.01,2013-03-01 04:47:00,
2013-02-28 23:52:00,31.8,23.8,29.95,West,274,0.0,1.0,72,0.00,,SKC,0.00,VWS V14.01,2013-03-01 04:52:00,
2013-02-28 23:58:00,31.8,23.8,29.95,WNW,288,1.0,1.0,72,0.00,,SKC,0.00,VWS V14.01,2013-03-01 04:58:00,